DECAYED

STARLINK-2142, 47732 (Decayed)

Orbit data source: Space-Track

STARLINK-2142, 47732 was a payload satellite owned by SpaceX/Seattle (US) in LEO that was launched on Thu, 04 Mar 2021 UTC via an FALCON 9 launch vehicle from the Air Force Eastern Test Range (AFETR). Payload-class satellites include a variety of spacecraft equipped with specific instruments for various scientific and technological missions. These include communications satellites like Starlink; space stations such as the ISS; scientific satellites like the Hubble; Earth observation satellites from companies like Planet Labs, Umbra, and HawkEye 360; GPS; miniature CubeSats for education and research; and military/defense satellites.

Not visible in the next 10 days
Identifier
47732, 2021-017L
Orbit
Decayed
Country
Flag of USUS
Related business
Manufacturer
SpaceX/Seattle
Mission
Decayed Commercial Communications
Bus & Motor
STARLINK, Unknown motor
Mass
260 kg wet, ~248 kg dry
Launch date (UTC)
2021-03-04 (5 years ago)
Launch vehicle
FALCON 9
Launch site
Air Force Eastern Test Range (AFETR)
Object type
Payload
Rocket body
Debris
Shape & HBR
Box + 1 Pan, 10.1 m
Radar Cross Section
13.562 m², Large (>1 m²)

Expand to show TLE details & history
Last TLE update: 1 year ago

TLE from 1 year ago
0 STARLINK-2142
1 47732U 21017L   25250.07803546  .07043647  12200-4  89895-3 0  9993
2 47732  53.0238 183.3292 0004296 244.1043 115.9558 16.35098023251912
Epoch: 2025-09-07T01:52Z
TLE epoch observation values (Epoch: 2025-09-07T01:52:22.263Z)
Latitude
-0.00008°
Longitude
168.8337°
Altitude
181.034 km
Speed
7.798 km/s
True Right ascension
12h 13m 18s
True Declination
0° 00' 00"
Sunlit
Object was in daylight at epoch
Visualization orbit readout
Latitude
Unknown
Longitude
Unknown
Altitude
Unknown
Speed
Unknown
Apparent Right ascension
Unknown
Apparent Declination
Unknown
Sunlit
N/A
Visualization observer readout
Local Sidereal Time
02:49:06
Azimuth
Unknown
Elevation
Unknown
Doppler factor
Unknown
Orbital elements
Apogee altitude
181.983 km
Perigee altitude
176.349 km
Semi-major axis
6,557.303 km
Eccentricity
0.00043
Inclination
53.0238°
RAAN
183.3292°
Arg. of periapsis
244.1043°
True anomaly
116.00005°
Mean anomaly
115.9558°
Eccentric anomaly
115.97793°
Mean motion
4.08748 °/min
Orbital period
88.07 mins
BSTAR
0.00089895
Loading maneuver chart data...
Computing Atmospheric mass density...

Documentation

Showing up to 5 results
|